Showing default

JACKAL-02, 59134

Orbit data source: Space-Track

JACKAL-02, 59134 is a payload satellite owned by True Anomaly (US) in SSO that was launched on Mon, 04 Mar 2024 UTC via an FALCON 9 launch vehicle from the Air Force Western Test Range (AFWTR). Payloads include a variety of satellites, spacecraft, and rockets equipped with specific instruments for various scientific and technological missions. These include communications satellites like Starlink; space stations such as the ISS; scientific satellites like the Hubble; Earth observation satellites from companies like Planet Labs, Umbra, and HawkEye 360; GPS; miniature CubeSats for education and research; and military/defense satellites.

Loading next visibility...
JACKAL-02 details
Identifier
59134, 2024-043AN
Orbit
SSO
Last TLE update15 hours ago
Origin
Flag of USTrue Anomaly (US)
ManufacturerTrue Anomaly
MissionOperational Commercial Weather
Bus & MotorJACKAL, Unknown motor
Mass275 kg wet, 275 kg dry
Launch date (UTC)
2024-03-04 (10 months ago)
Launch vehicle
FALCON 9
Launch site
Air Force Western Test Range (AFWTR)
Object type
Payload
Rocket body
Debris
Shape & HBRBox + 2 Pan, 1 m
Radar Cross Section0.126 m², Medium (>0.1 m² and < 1m²)

Expand to show TLE details & history

TLE from 15 hours ago
0 JACKAL-02
1 59134U 24043AN  25015.34168696  .00015207  00000-0  57243-3 0  9990
2 59134  97.4939 144.5314 0009688 257.3853 102.6303 15.27167946 48107
Epoch: 2025-01-15T08:12Z
Definitive object data (Epoch: 2025-01-15T08:12:01.753Z)
Latitude0.00003°
Longitude-93.51132°
Altitude488.841 km
Speed7.62 km/s
True Right ascension09h 38m 07s
True Declination0° 00' 00"
Sunlit
Object was in full shadow at TLE epoch
Visualization TLE readout
Latitude-23.97732°
Longitude83.78267°
Altitude489.165 km
Speed7.622 km/s
Apparent Right ascension18h 02m 13s
Apparent Declination-60° 53' 16"
Sunlit
Object is in daylight
Visualization observer readout
Local Sidereal Time23:56:48
Azimuth215.676° SW
Elevation-33.489°
Doppler factor1
Orbital elements
Apogee altitude487.889 km
Perigee altitude474.598 km
Semi-major axis6,859.38 km
Eccentricity0.0009688
Inclination97.4939°
RAAN144.5314°
Arg. of periapsis257.3853°
True anomaly102.7386°
Mean anomaly102.6303°
Eccentric anomaly102.68445°
Mean motion3.82046 °/min
BSTAR0.00057243
Orbital period94.23 mins
Loading maneuver chart data...
Loading historical data...
Loading historical data...
Loading historical data...
Loading historical data...
Loading historical data...
Loading historical data...
Loading historical data...

JACKAL-02 Visibility forecast

Observer location: undefined°, undefined

Span
Click to sort rows by Start time (UTC) header in descending order
Start Az.
Max El. time (UTC)
Max El. Az.
Max El.
End time (UTC)
End Az.
5 mins2025-01-16 07:55:40.131Z129.12° SE2025-01-16 07:58:40.131Z60.28° ENE25.902°2025-01-16 08:00:40.131Z17.74° NNE
5 mins2025-01-16 20:56:40.131Z36.233° NE2025-01-16 20:58:40.131Z84.939° E31.929°2025-01-16 21:01:40.131Z164.877° S
|